Coldwater, MI

10:01 AM EST on February 19, 2017 (GMT -0500)
Branch County Memorial

Weather History for KOEB - November, 2012

Change the Weather History Date:

Saturday, November 10, 2012

  Actual Average (KJYM) Record (KJYM)
Temperature  
Mean Temperature 58 °F -  
Max Temperature 66 °F 49 °F 70 °F (1975)
Min Temperature 50 °F 31 °F 15 °F (1991)
Degree Days  
Heating Degree Days 8    
Growing Degree Days 8 (Base 50)    
Moisture  
Dew Point 45 °F    
Average Humidity 62    
Maximum Humidity 80    
Minimum Humidity 48    
Precipitation  
Precipitation 0.00 in - - ()
Sea Level Pressure  
Sea Level Pressure 30.04 in    
Wind  
Wind Speed 6 mph (SSE)    
Max Wind Speed 15 mph    
Max Gust Speed 24 mph    
Visibility 9 miles    
Events      
Averages and records for this station are not official NWS values.
T = Trace of Precipitation, MM = Missing Value Source: NWS Daily Summary

Daily Weather History Graph

Daily Weather History Graph

Search for Another Location

Airport or City:

Trip Planner

Search our weather history database for the weather conditions in past years. The results will help you decide how hot, cold, wet, or windy it might be!

Date:

Astronomy

Nov. 10, 2012 Rise Set
Actual Time 7:24 AM EST 5:23 PM EST
Civil Twilight 6:54 AM EST 5:53 PM EST
Nautical Twilight 6:21 AM EST 6:26 PM EST
Astronomical Twilight 5:48 AM EST 6:59 PM EST
Moon 3:25 AM EST (11/10) 3:12 PM EST (11/10)
Length of Visible Light 10h 58m
Length of Day
9h 59m
Waning Crescent, 14% of the Moon is Illuminated
Nov 10
Waning Crescent
Nov 13
New
Nov 20
First Quarter
Nov 28
Full
Dec 6
Last Quarter

Hourly Weather History & Observations

Time (EST) Temp. Dew Point Humidity Pressure Visibility Wind Dir Wind Speed Gust Speed Precip Events Conditions
12:15 AM 50.9 °F 43.9 °F 77% 30.07 in 7.0 mi ESE 3.5 mph - N/A   Overcast
12:34 AM 50.5 °F 43.9 °F 78% 30.06 in 7.0 mi ESE 3.5 mph - N/A   Overcast
12:54 AM 50.4 °F 44.4 °F 80% 30.07 in 7.0 mi East 3.5 mph - N/A   Overcast
1:15 AM 50.4 °F 44.4 °F 80% 30.07 in 7.0 mi East 3.5 mph - N/A   Overcast
1:34 AM 50.2 °F 44.2 °F 80% 30.06 in 7.0 mi East 3.5 mph - N/A   Overcast
1:54 AM 50.7 °F 43.9 °F 77% 30.06 in 7.0 mi Calm Calm - N/A   Overcast
2:14 AM 50.9 °F 43.7 °F 76% 30.07 in 7.0 mi SE 4.6 mph - N/A   Overcast
2:34 AM 51.1 °F 43.2 °F 74% 30.07 in 7.0 mi ESE 4.6 mph - N/A   Overcast
2:55 AM 51.1 °F 43.2 °F 74% 30.07 in 7.0 mi SE 4.6 mph - N/A   Overcast
3:14 AM 50.9 °F 43.3 °F 75% 30.07 in 7.0 mi SE 3.5 mph - N/A   Overcast
3:34 AM 51.1 °F 43.2 °F 74% 30.08 in 7.0 mi ESE 3.5 mph - N/A   Overcast
3:55 AM 50.9 °F 43.0 °F 74% 30.08 in 7.0 mi SE 4.6 mph - N/A   Overcast
4:14 AM 51.1 °F 43.0 °F 74% 30.08 in 10.0 mi ESE 4.6 mph - N/A   Overcast
4:34 AM 51.1 °F 43.0 °F 74% 30.07 in 10.0 mi SE 5.8 mph - N/A   Overcast
4:55 AM 50.9 °F 43.2 °F 75% 30.07 in 10.0 mi ESE 4.6 mph - N/A   Overcast
5:14 AM 50.9 °F 43.2 °F 75% 30.08 in 10.0 mi Calm Calm - N/A   Overcast
5:34 AM 51.1 °F 43.0 °F 74% 30.08 in 10.0 mi SE 4.6 mph - N/A   Overcast
5:55 AM 51.1 °F 43.2 °F 74% 30.07 in 10.0 mi SE 3.5 mph - N/A   Overcast
6:14 AM 51.3 °F 43.0 °F 73% 30.07 in 10.0 mi SSE 4.6 mph - N/A   Overcast
6:34 AM 51.3 °F 43.0 °F 73% 30.07 in 10.0 mi SSE 5.8 mph - N/A   Overcast
6:55 AM 51.3 °F 42.8 °F 73% 30.08 in 10.0 mi SSE 5.8 mph - N/A   Overcast
7:35 AM 51.3 °F 42.8 °F 73% 30.08 in 10.0 mi SSE 4.6 mph - N/A   Overcast
7:54 AM 51.3 °F 42.8 °F 73% 30.08 in 7.0 mi SE 5.8 mph - N/A   Overcast
8:15 AM 51.3 °F 43.0 °F 73% 30.09 in 10.0 mi SSE 4.6 mph - N/A   Overcast
8:35 AM 51.6 °F 43.2 °F 73% 30.10 in 7.0 mi SSE 5.8 mph - N/A   Overcast
8:54 AM 51.8 °F 43.2 °F 72% 30.10 in 10.0 mi SSE 8.1 mph - N/A   Overcast
9:15 AM 52.2 °F 43.7 °F 73% 30.10 in 10.0 mi SSE 4.6 mph - N/A   Overcast
9:34 AM 53.2 °F 43.2 °F 69% 30.09 in 10.0 mi South 5.8 mph - N/A   Overcast
9:54 AM 54.3 °F 43.2 °F 66% 30.08 in 10.0 mi SSE 6.9 mph - N/A   Overcast
10:15 AM 54.9 °F 43.3 °F 65% 30.07 in 10.0 mi South 5.8 mph - N/A   Overcast
10:34 AM 56.5 °F 43.5 °F 62% 30.05 in 10.0 mi SSE 8.1 mph - N/A   Mostly Cloudy
10:54 AM 58.5 °F 44.2 °F 59% 30.06 in 10.0 mi SSE 9.2 mph - N/A   Scattered Clouds
11:15 AM 59.5 °F 44.6 °F 58% 30.07 in 10.0 mi SSW 5.8 mph - N/A   Scattered Clouds
11:34 AM 60.4 °F 45.0 °F 57% 30.06 in 10.0 mi SSW 8.1 mph - N/A   Scattered Clouds
11:54 AM 61.7 °F 44.2 °F 53% 30.05 in 10.0 mi SSW 10.4 mph - N/A   Clear
12:15 PM 62.6 °F 45.0 °F 52% 30.05 in 10.0 mi South 10.4 mph - N/A   Scattered Clouds
12:34 PM 63.0 °F 45.0 °F 52% 30.04 in 10.0 mi South 9.2 mph - N/A   Mostly Cloudy
12:54 PM 63.5 °F 45.1 °F 51% 30.03 in 10.0 mi SSW 12.7 mph 17.3 mph N/A   Overcast
1:15 PM 64.4 °F 45.0 °F 49% 30.01 in 10.0 mi SSE 9.2 mph - N/A   Scattered Clouds
1:34 PM 65.5 °F 45.5 °F 48% 30.01 in 10.0 mi South 10.4 mph - N/A   Clear
1:55 PM 64.6 °F 45.5 °F 50% 30.01 in 10.0 mi South 8.1 mph 21.9 mph N/A   Mostly Cloudy
2:15 PM 65.3 °F 45.5 °F 49% 30.01 in 10.0 mi South 9.2 mph - N/A   Overcast
2:34 PM 65.5 °F 45.9 °F 49% 30.00 in 10.0 mi South 8.1 mph - N/A   Mostly Cloudy
2:55 PM 64.8 °F 46.0 °F 51% 29.99 in 10.0 mi South 9.2 mph - N/A   Clear
3:14 PM 64.6 °F 46.4 °F 52% 30.00 in 10.0 mi South 11.5 mph 16.1 mph N/A   Clear
3:34 PM 64.4 °F 46.4 °F 52% 30.00 in 10.0 mi South 10.4 mph - N/A   Clear
3:55 PM 64.4 °F 46.6 °F 52% 30.01 in 10.0 mi South 9.2 mph - N/A   Clear
4:14 PM 64.4 °F 46.8 °F 53% 30.01 in 10.0 mi South 9.2 mph - N/A   Clear
4:34 PM 63.9 °F 46.9 °F 54% 30.02 in 10.0 mi SSW 8.1 mph - N/A   Clear
4:55 PM 63.3 °F 47.3 °F 56% 30.01 in 10.0 mi South 6.9 mph - N/A   Scattered Clouds
5:14 PM 63.0 °F 47.3 °F 57% 30.00 in 10.0 mi South 6.9 mph - N/A   Scattered Clouds
5:34 PM 62.2 °F 47.3 °F 58% 29.99 in 10.0 mi South 8.1 mph - N/A   Clear
5:55 PM 61.9 °F 47.5 °F 59% 29.99 in 10.0 mi South 9.2 mph - N/A   Clear
6:14 PM 62.1 °F 47.8 °F 60% 29.98 in 10.0 mi South 12.7 mph 17.3 mph N/A   Clear
6:34 PM 63.3 °F 48.4 °F 58% 29.98 in 10.0 mi South 13.8 mph 20.7 mph N/A   Clear
6:55 PM 64.2 °F 48.2 °F 56% 29.98 in 10.0 mi South 12.7 mph 23.0 mph N/A   Clear
7:14 PM 64.2 °F 47.8 °F 55% 29.98 in 10.0 mi SSW 15.0 mph 20.7 mph N/A   Scattered Clouds
7:35 PM 64.0 °F 46.9 °F 54% 29.99 in 10.0 mi SSW 13.8 mph 23.0 mph N/A   Scattered Clouds
7:55 PM 63.7 °F 46.4 °F 53% 29.99 in 10.0 mi SSW 12.7 mph 20.7 mph N/A   Clear
8:14 PM 63.7 °F 45.9 °F 52% 30.00 in 10.0 mi SSW 15.0 mph 24.2 mph N/A   Clear
8:35 PM 63.7 °F 45.5 °F 52% 30.01 in 10.0 mi SSW 12.7 mph 21.9 mph N/A   Clear
8:54 PM 63.7 °F 45.5 °F 52% 30.02 in 10.0 mi SSW 10.4 mph 21.9 mph N/A   Scattered Clouds
9:14 PM 63.7 °F 45.0 °F 51% 30.02 in 10.0 mi SSW 9.2 mph 21.9 mph N/A   Scattered Clouds
9:35 PM 63.3 °F 44.8 °F 51% 30.02 in 10.0 mi SSW 8.1 mph 16.1 mph N/A   Clear
9:54 PM 63.5 °F 44.8 °F 51% 30.02 in 10.0 mi SSW 8.1 mph 19.6 mph N/A   Light Drizzle
10:35 PM 62.1 °F 45.0 °F 53% 30.02 in 10.0 mi SSW 8.1 mph 16.1 mph N/A   Clear
10:54 PM 61.7 °F 45.0 °F 54% 30.02 in 10.0 mi SSW 10.4 mph 18.4 mph N/A   Clear
11:14 PM 61.7 °F 45.0 °F 54% 30.02 in 10.0 mi SSW 12.7 mph 21.9 mph N/A   Clear
11:35 PM 61.0 °F 45.3 °F 56% 30.02 in 10.0 mi SSW 11.5 mph 17.3 mph N/A   Clear
11:54 PM 61.0 °F 45.5 °F 57% 30.03 in 10.0 mi SSW 11.5 mph 18.4 mph N/A   Clear